Location: Julian California
(33.0790°N, 116.6010°W)
Time: 01:58:21
(UTC-07:00)

Cosmos 1536 - Pass Details

Date: 19 May 2017
Orbit: 542 x 560 km, 82.5° (Epoch: 28 June)

Event Time Altitude Azimuth Distance (km) Brightness Sun altitude
Rises 20:45:38 0° 342° (NNW) 2,706 7.2 -12.4°
Reaches altitude 10° 20:47:56 10° 333° (NNW) 1,808 6.5 -12.8°
Maximum altitude 20:51:32 34° 268° (W) 908 4.5 -13.4°
Drops below altitude 10° 20:55:06 10° 203° (SSW) 1,794 5.3 -14.0°
Sets 20:57:22 0° 194° (SSW) 2,682 6.1 -14.4°
